Simultaneous Nadir Overpasses (SNOs) Predictions

Prediction of SNOs between AURA and NPP Satellite Orbit:

Table of predicted SNOs for the next 14.0 days since TLE Epoch: 6/4/2022
Index Date (AURA) Time (AURA) Lat,Lon (AURA) SZA (AURA ) Date (NPP) Time (NPP) Lat,Lon (NPP) SZA (NPP ) Distance(km) Time Diff (sec)
1 06/05/2022 03:41:41 79.43, 20.97 70.26 06/05/2022 03:41:08 79.44, 21.11 70.26 3.15 33
2 06/05/2022 04:31:03 -79.63,-170.02 110.04 06/05/2022 04:31:48 -79.62,-170.06 110.06 1.00 45
3 06/07/2022 19:58:13 79.44, 136.87 70.01 06/07/2022 19:58:06 79.44, 136.81 70.03 1.23 7
4 06/07/2022 20:47:33 -79.71, -53.56 110.41 06/07/2022 20:48:43 -79.71, -53.51 110.47 1.01 70
5 06/10/2022 11:25:26 -79.22, 83.64 109.87 06/10/2022 11:24:27 -79.21, 83.51 109.80 2.87 59
6 06/10/2022 12:14:43 79.56,-106.45 69.64 06/10/2022 12:15:01 79.56,-106.43 69.62 0.41 18
7 06/13/2022 03:41:56 -79.34,-159.71 110.19 06/13/2022 03:41:22 -79.34,-159.79 110.15 1.79 34
8 06/13/2022 04:31:14 79.64, 9.97 69.37 06/13/2022 04:31:57 79.64, 10.04 69.33 1.64 43
9 06/15/2022 19:58:26 -79.46, -43.05 110.47 06/15/2022 19:58:17 -79.45, -43.10 110.45 1.13 9



Historial Predications of SNOs between AURA and NPP
